Home > Weather > Málaga > Past weeks

Flag for Spain Weather for the Past 2 Weeks in Málaga, Spain

Now
61 °F

Partly sunny.


Feels Like: 61 °F
Forecast: 47 / 57 °F
Wind: 16 mph from West

Location: Malaga / Aeropuerto

Current Time: Feb 14, 2016 at 9:54:42 AM

Latest Report: Feb 14, 2016 at 9:30 AM


Visibility: N/A

Pressure: 29.89 "Hg

Humidity: 63%

Dew point: 48 °F

Location of MálagaLocation

Historic Weather in Málaga — Graph

°F

Málaga Temperature Yesterday

Maximum temperature yesterday: 72 °F (at 4:00 PM)
Minimum temperature yesterday: 61 °F (at 12:00 AM)
Average temperature yesterday: 65 °F

High & Low Weather Summary for the Past Weeks

 TemperatureHumidityPressure
High73 °F (Feb 12, 3:00 PM)100% (Feb 1, 8:00 PM)30.57 "Hg (Feb 1, 8:00 PM)
Low45 °F (Feb 2, 5:00 AM)40% (Jan 31, 3:00 PM)29.86 "Hg (Feb 14, 7:30 AM)
Average59 °F73%30.27 "Hg
* Reported Jan 30 8:00 AM — Feb 14 8:30 AM, Málaga, Weather by CustomWeather, © 2016

Note: Actual official high and low records may vary slightly from our data, if they occured in-between our weather recording intervals... More about our weather records

Advertising

Málaga Weather History for the Previous 24 Hours

 ConditionsComfort  
Time TempWeatherWind HumidityBarometerVisibility
8:30 AM
Sun, Feb 14
59 °FScattered clouds.1 mph72%29.89 "HgN/A
8:00 AM59 °FPassing clouds.3 mph68%29.86 "HgN/A
7:30 AM57 °FPassing clouds.2 mph77%29.86 "HgN/A
7:00 AM59 °FPassing clouds.8 mph72%29.89 "HgN/A
6:30 AM57 °FPassing clouds.6 mph82%29.89 "HgN/A
6:00 AM59 °FPassing clouds.13 mph82%29.89 "HgN/A
5:30 AM59 °FLight rain. Passing clouds.6 mph94%29.89 "HgN/A
5:00 AM61 °FPassing clouds.8 mph88%29.89 "HgN/A
4:30 AM59 °FPassing clouds.No wind82%29.89 "HgN/A
4:00 AM61 °FPassing clouds.1 mph77%29.89 "HgN/A
3:30 AM63 °FPassing clouds.No wind77%29.92 "HgN/A
3:00 AM63 °FPassing clouds.2 mph73%29.92 "HgN/A
2:30 AM63 °FPassing clouds.2 mph73%29.92 "HgN/A
2:00 AM61 °FPassing clouds.No wind77%29.92 "HgN/A
1:30 AM63 °FPassing clouds.No wind77%29.95 "HgN/A
1:00 AM61 °FPassing clouds.No wind83%29.95 "HgN/A
12:30 AM61 °FPassing clouds.No wind77%29.95 "HgN/A
12:00 AM63 °FPassing clouds.2 mph73%29.95 "HgN/A
11:30 PM
Sat, Feb 13
63 °FPassing clouds.No wind73%29.98 "HgN/A
11:00 PM63 °FPassing clouds.6 mph73%29.98 "HgN/A
10:30 PM64 °FPassing clouds.No wind68%30.01 "HgN/A
10:00 PM63 °FPassing clouds.3 mph73%30.01 "HgN/A
9:30 PM63 °FPassing clouds.8 mph73%30.01 "HgN/A
9:00 PM63 °FPassing clouds.5 mph73%30.01 "HgN/A
8:30 PM63 °FPassing clouds.3 mph73%30.01 "HgN/A
8:00 PM64 °FPassing clouds.2 mph68%30.01 "HgN/A
7:30 PM64 °FPassing clouds.3 mph68%30.01 "HgN/A
7:00 PM64 °FPassing clouds.5 mph64%30.01 "HgN/A
6:30 PM66 °FPartly sunny.9 mph64%30.01 "HgN/A
6:00 PM66 °FPartly sunny.13 mph60%30.01 "HgN/A
5:30 PM68 °FPartly sunny.13 mph56%29.98 "HgN/A
5:00 PM68 °FScattered clouds.15 mph56%29.98 "HgN/A
4:30 PM72 °FScattered clouds.9 mph50%29.98 "HgN/A
4:00 PM72 °FScattered clouds.13 mph50%29.98 "HgN/A
3:30 PM70 °FScattered clouds.12 mph53%29.98 "HgN/A
3:00 PM68 °FScattered clouds.6 mph56%30.01 "HgN/A
2:30 PM68 °FScattered clouds.5 mph60%30.01 "HgN/A
2:00 PM68 °FScattered clouds.9 mph60%30.01 "HgN/A
1:30 PM70 °FScattered clouds.5 mph64%30.04 "HgN/A
1:00 PM70 °FScattered clouds.3 mph60%30.04 "HgN/A
12:30 PM68 °FScattered clouds.5 mph64%30.07 "HgN/A
12:00 PM68 °FScattered clouds.7 mph64%30.07 "HgN/A
11:30 AM64 °FScattered clouds.8 mph73%30.07 "HgN/A
11:00 AM66 °FScattered clouds.2 mph68%30.07 "HgN/A
10:30 AM66 °FScattered clouds.No wind68%30.07 "HgN/A
10:00 AM66 °FScattered clouds.5 mph64%30.07 "HgN/A
9:30 AM63 °FScattered clouds.No wind73%30.04 "HgN/A
9:00 AM63 °FScattered clouds.No wind68%30.04 "HgN/A
Weather by CustomWeather, © 2016

See weather overviewHow to use our weather pages